sat.trackr.live / text

‹ back to catalog

STARLINK-4384

NORAD 53218 · 2022-084AF

PAYLOAD ACTIVE UNKNOWN

§ Identity

Operator
Country
US
Launch date
2022-07-22
Launch site
AFWTR
Launch vehicle
Mass (kg)
RCS (m²)

Purposes: comms

External: N2YO · Heavens-Above · Gunter

§ Orbital elements

Epoch: 2026-05-25T03:56:49.248960Z

Period
95.64 min
Inclination
97.4516°
Eccentricity
0.0000919
Mean motion
15.05586582 rev/d
Perigee alt
549.1 km
Apogee alt
550.3 km
Semi-major
6,927.8 km
B*
-5.5762e-4
RAAN
206.2975°
Arg perigee
282.6317°
Mean anomaly
77.4807°
Rev number
21,141

§ Raw data

STARLINK-43841 53218U 22084AF  26145.16445890 -.00008081  00000+0 -55762-3 0  99962 53218  97.4516 206.2975 0000919 282.6317  77.4807 15.05586582211419

JSON: /api/v1/satellites/53218 · /tle

For live sub-satellite position, see the globe view (requires WebGL).

§ Visibility from observer

Set your observer location to see the next 7 days of passes ≥ 10°. The values pass through the URL so the page stays shareable.

No JS? Fill the form by hand. The geolocation button needs JavaScript.